Location: General Nathan Twining Observatory
(34.5931°N, 106.8201°W)
Time: 11:04:11
(UTC-07:00)

Daily predictions for brighter satellites

Satellite Brightness Start Highest point End
(mag) Time Altitude Azimuth Time Altitude Azimuth Time Altitude Azimuth
OAO 3 Rocket 4.0 18:18:21 10° SW 18:23:01 41° SSE 18:27:39 10° E
Cosmos 2297 Rocket 3.6 18:20:31 10° SE 18:23:52 16° E 18:27:14 10° ENE
Cosmos 2237 Rocket 3.8 18:22:08 10° NNE 18:25:16 15° NE 18:28:22 10° E
Cosmos 1741 Rocket 4.1 18:20:45 10° SSW 18:25:59 87° WNW 18:31:13 10° NNE
ALOS 3.4 18:23:56 10° ESE 18:27:38 24° ENE 18:31:21 10° NNE
COSMO-SKYMED 1 3.3 18:24:24 10° N 18:28:41 60° WNW 18:32:56 10° SSW
SJ-6B 3.4 18:30:01 10° SE 18:33:38 35° ENE 18:37:11 10° N
Cosmos 2219 Rocket 3.0 18:29:56 10° N 18:34:47 29° ENE 18:39:37 10° ESE
Cosmos 2237 4.2 18:29:26 10° NNW 18:35:10 71° ENE 18:40:51 10° SSE
COSMOS 2428 2.8 18:30:01 10° NNW 18:35:36 55° ENE 18:41:09 10° SE
Cosmos 2360 Rocket 2.8 18:30:51 10° NNW 18:36:26 63° WSW 18:42:01 10° S
Meteor 1-19 Rocket 4.3 18:32:02 10° N 18:37:48 86° E 18:43:37 10° S
Meteor 2-4 Rocket 3.6 18:38:02 10° N 18:43:29 66° E 18:48:47 10° SSE
Cosmos 2227 Rocket 2.8 18:39:23 10° SSE 18:44:27 35° ESE 18:49:32 10° NE
Cosmos 2219 3.8 18:39:45 10° SSW 18:45:26 63° WNW 18:51:08 10° NNE
Resurs 01 Rocket 2.6 18:42:18 10° SE 18:45:56 26° ENE 18:49:34 10° NNE
USA 229 DEB 3.9 18:42:39 10° NNW 18:49:42 58° NE 18:56:49 10° SE
USA 229 3.9 18:42:45 10° NNW 18:49:47 57° NE 18:56:54 10° SE
Cosmos 1570 Rocket 4.0 18:45:35 10° NNW 18:50:50 88° WSW 18:56:04 10° SSE
FREGAT/IRIS 2.6 18:48:48 10° SSE 18:51:51 64° ENE 18:54:55 10° N
Okean 1 Rocket 4.0 18:48:23 10° SSW 18:52:45 53° W 18:57:09 10° N
NOAA 12 4.1 18:47:37 10° SSE 18:52:56 89° E 18:58:18 10° NNW
Cosmos 1025 Rocket 3.1 18:49:19 10° N 18:53:40 58° E 18:58:00 10° SSE
SL-08 ROCKET BODY 4.5 18:48:39 10° S 18:54:49 85° E 19:01:03 10° N
Meteor 1-23 Rocket 4.2 18:49:05 10° N 18:54:51 69° E 19:00:30 10° SSE
Spot 2 Rocket 4.1 18:50:22 10° SE 18:54:53 34° ENE 18:59:26 10° N
BREEZE-M DEB (TANK) 3.7 18:52:08 10° WSW 18:56:53 42° NW 18:59:18 10° NE
Cosmos 2327 Rocket 4.5 18:53:06 10° S 18:59:18 76° E 19:05:39 10° N
Cosmos 1892 Rocket 4.2 18:55:49 10° NNE 18:59:47 33° E 19:03:45 10° SE
GPS 2-04 Rocket1 2.9 18:57:04 10° W 19:01:17 77° N 19:04:05 21° E
OTV 4 0.8 18:58:27 10° W 19:01:23 54° N 19:03:01 23° ENE
SL-16 R/B 4.0 19:00:10 10° NNE 19:02:36 13° NE 19:03:01 13° ENE
Cosmos 1536 4.3 19:02:12 10° SSW 19:05:58 40° W 19:09:44 10° N
GEOS 3 Rocket 4.0 19:02:13 10° NE 19:07:12 42° ESE 19:12:11 10° S
Atlas Centaur 2 3.4 19:01:32 10° SW 19:08:51 40° SSE 19:13:02 20° ESE
Okean 2 3.4 19:06:28 10° N 19:10:37 61° E 19:14:44 10° SSE
HJ-1C 3.3 19:08:12 10° SSE 19:11:32 69° ENE 19:14:53 10° N
Meteor 2-13 Rocket 4.4 19:06:21 10° S 19:12:21 68° E 19:18:24 10° NNE
FENGYUN 3A 3.6 19:07:41 10° SSE 19:13:04 72° ENE 19:18:28 10° N
Cosmos 1814 Rocket 4.4 19:09:18 10° N 19:14:05 38° ENE 19:16:59 21° ESE
Cosmos 1544 Rocket 3.4 19:14:03 10° S 19:18:20 66° E 19:22:37 10° NNE
NOSS 3-1 (C) 4.4 19:11:47 10° NNW 19:19:03 44° NE 19:24:01 22° ESE
Cosmos 2074 Rocket 4.4 19:13:12 10° SSW 19:19:25 68° W 19:25:41 10° N
Helios 1B rocket 2.7 19:21:01 10° NNE 19:24:59 42° E 19:28:55 10° S
Cosmos 1980 3.8 19:20:08 10° N 19:25:37 50° ENE 19:28:45 24° SE
BREEZE-M DEB (TANK) 2.9 19:24:16 10° NW 19:27:17 63° NE 19:31:05 25° ESE
NOSS 0 Rocket 3.8 19:22:47 10° NNW 19:28:55 69° ENE 19:34:16 14° SSE
Cosmos 2333 Rocket 2.1 19:23:32 10° NNW 19:29:18 69° ENE 19:34:05 15° SSE
Helios 1A 3.4 19:29:35 38° ENE 19:29:35 38° ENE 19:33:17 10° N
Cosmos 1975 2.8 19:25:43 10° S 19:29:40 57° E 19:33:39 10° NNE
Cosmos 1437 3.2 19:27:27 10° N 19:30:02 45° NNE 19:30:02 45° NNE
Cosmos 1354 Rocket 4.5 19:25:58 10° SSE 19:30:42 36° E 19:31:10 35° E
Cosmos 1500 3.1 19:27:20 10° S 19:31:02 55° E 19:34:45 10° NNE
USA 32 4.5 19:26:33 10° NNE 19:31:21 36° E 19:31:43 36° E
Cosmos 1515 3.6 19:37:08 10° N 19:40:45 65° ENE 19:40:45 65° ENE
ATLAS 2A CENTAUR R/B 3.8 19:38:24 10° SW 19:41:19 21° S 19:44:09 17° SE
Cosmos 1486 Rocket 4.1 19:37:40 10° SSW 19:43:00 82° WNW 19:48:20 10° NNE
Skynet4D Del rocket 4.3 19:41:29 10° WSW 19:46:29 37° S 19:47:37 33° SSE
Cosmos 2082 3.9 19:42:36 10° SSW 19:48:18 71° WNW 19:54:02 10° NNE
Nadezhda 3 Rocket 3.8 19:42:34 10° N 19:48:46 80° E 19:54:59 10° S
Spot 1 3.9 19:49:36 68° NE 19:49:36 68° NE 19:53:28 10° N
Cosmos 841 Rocket 3.8 19:46:27 10° N 19:50:47 45° NE 19:50:47 45° NE
Cosmos 1455 Rocket 3.7 19:51:15 10° SSW 19:55:32 54° W 19:59:49 10° N
Hubble Space Telescope 2.0 19:52:17 10° WSW 19:55:39 32° SSW 19:55:39 32° SSW
Cosmos 2154 Rocket 4.3 19:51:44 10° SSW 19:58:01 67° W 20:04:20 10° N
Cosmos 405 Rocket 4.3 19:56:18 10° NNW 20:00:00 36° W 20:03:37 10° SSW
Cosmos 2341 Rocket 4.0 19:53:43 10° S 20:00:05 87° W 20:06:31 10° N
Cosmos 1763 Rocket 3.3 19:55:00 10° NNW 20:00:09 74° ENE 20:00:20 73° E
Longmarch 3A Rocket 4.1 19:58:49 10° SW 19:59:04 11° SSW 19:59:04 11° SSW
H-2A R/B 4.1 19:57:45 12° SSW 20:00:51 38° W 20:04:22 10° NNW
SL-24 R/B - RUBIN 2 4.5 19:54:47 10° SSW 20:01:08 63° ESE 20:02:36 50° ENE
Cosmos 1503 Rocket 3.8 19:56:09 10° S 20:01:08 72° SE 20:01:08 72° SE
ALOS 4.2 20:00:54 10° SSW 20:04:54 28° W 20:08:55 10° NW
CZ-2D R/B 4.1 20:05:26 45° WSW 20:05:46 47° W 20:09:29 10° NNW
OAO 3 Rocket 3.2 20:01:26 10° W 20:06:09 80° WSW 20:06:09 80° WSW
Cosmos 2297 Rocket 2.8 20:01:49 10° SW 20:07:21 56° WNW 20:12:54 10° NNE
Cosmos 332 Rocket 4.1 20:02:59 10° NNW 20:06:49 54° N 20:06:49 54° N
SEDSat Delta rocket 4.1 20:02:02 10° WSW 20:08:34 55° SSE 20:08:53 54° SSE
Cosmos 2237 Rocket 2.3 20:04:12 10° NNW 20:09:54 73° WSW 20:11:41 44° S
Meteor 2-19 Rocket 4.3 20:05:01 10° S 20:11:09 82° E 20:17:19 10° N
Meteor 2-8 Rocket 4.2 20:07:56 10° N 20:14:02 84° E 20:14:53 67° SSE
Cosmos 371 Rocket 4.5 20:11:43 10° NNW 20:14:30 34° N 20:14:30 34° N
Cosmos 1066 Rocket 4.1 20:12:05 10° N 20:17:40 80° W 20:18:03 75° SW
Cosmos 2219 Rocket 3.8 20:13:44 10° NW 20:18:39 32° WSW 20:23:35 10° SSW
Resurs 01 Rocket 3.9 20:18:48 10° SSW 20:22:18 23° W 20:25:49 10° NW
Cosmos 2227 Rocket 4.1 20:23:41 10° WSW 20:28:28 28° WNW 20:33:17 10° N
SL-16 R/B 3.4 20:41:42 10° NNW 20:44:57 36° NNW 20:44:57 36° NNW
NOSS 3-1 (A) 4.2 20:45:46 10° NW 20:53:35 71° WSW 20:54:05 69° SW
Atlas Centaur 2 3.6 20:50:56 10° WSW 20:55:42 38° SW 20:55:42 38° SW
ATLAS 2AS CENTAUR R/B 4.1 20:51:55 10° NNW 20:56:44 32° N 20:56:44 32° N
ATLAS 3B CENTAUR R/B 4.4 21:13:58 10° WSW 21:35:58 59° SSW 21:35:58 59° SSW
